Zurück zum Katalog

METEOR 2-17 DEB

AktivPO
NORAD 31398·DEBRIS·🇷🇺 Russia

Gestartet Jan 30, 1988 von Plesetsk Cosmodrome

Loading…

Nächste Überflüge (nächste 24 Stunden)

TLE

AktuellSource: Space-Track

Epoche: Sep 14, 2026, 03:35 UTC

1 31398U 88005T   26257.14951523  .00001551  00000-0  98085-3 0  9992
2 31398  82.5345 198.1197 0024475 336.0107  23.9921 14.03351770671361

Verfolge METEOR 2-17 DEB in Echtzeit mit AllMySat

Download on the App Store